User: anonymous
Location: Laverne
(36.7100°N, 99.8930°W)
Time: 11:44:20
(UTC-05:00)
Language:

Iridium 32 - Orbit

View from above orbital plane
View from above orbital plane
View from above satellite
View from above satellite

Ground track
Ground track

The orbit data is extracted from the following two-line orbital elements,

1 24945U 97051B   14293.46136777  .00000474  00000-0  16223-3 0   517
2 24945 086.3954 332.8829 0002249 107.6000 252.5441 14.34213358895286
Epoch (UTC): 20 October 2014 11:04:22
Eccentricity: 0.0002249
inclination: 86.3954°
perigee height: 776 km
apogee height: 779 km
right ascension of ascending node: 332.8829°
argument of perigee: 107.6000°
revolutions per day: 14.34213358
mean anomaly at epoch: 252.5441°
orbit number at epoch: 89528

The dashed part of the orbit path shows where the satellite is in the earth's shadow,  

DLR